Location: *
(43.9905°S, 176.4941°W)
Time: 20:14:10
(UTC+00:00)

ISS - Visible Passes

Search period start: 27 February 2021 00:00
Search period end: 09 March 2021 00:00
Orbit: 417 x 422 km, 51.6° (Epoch: 27 February)

Date Brightness Start Highest point End Pass type
(mag) Time Alt. Az. Time Alt. Az. Time Alt. Az.
27 Feb -2.5 07:50:04 10° SW 07:53:16 34° SSE 07:55:06 20° ESE visible
27 Feb -1.1 09:26:50 10° WSW 09:28:03 20° WSW 09:28:03 20° WSW visible
28 Feb -2.1 07:02:37 10° SW 07:05:40 28° SSE 07:08:42 10° ESE visible
28 Feb -3.4 08:39:19 10° WSW 08:42:21 65° WSW 08:42:21 65° WSW visible
01 Mar -3.5 07:51:52 10° SW 07:55:19 64° SSE 07:56:40 33° E visible
01 Mar -0.6 09:29:16 10° W 09:29:37 12° W 09:29:37 12° W visible
02 Mar -3.0 07:04:26 10° SW 07:07:47 44° SSE 07:11:02 10° E visible
02 Mar -2.2 08:41:25 10° WSW 08:44:00 30° WNW 08:44:00 30° WNW visible
03 Mar -3.2 07:53:46 10° WSW 07:57:09 51° NW 07:58:26 31° NNE visible
04 Mar -3.7 07:06:14 10° WSW 07:09:42 83° NNW 07:12:56 11° NE visible
04 Mar -1.0 08:44:35 10° WNW 08:45:54 12° NW 08:45:54 12° NW visible
05 Mar -1.5 07:56:10 10° W 07:58:43 20° NW 08:00:30 14° N visible
06 Mar -2.1 07:08:17 10° WSW 07:11:23 31° NW 07:14:28 10° NNE visible
08 Mar -0.8 07:11:27 10° WNW 07:12:50 12° NW 07:14:14 10° NNW visible
